Reflectivity
-20 -20 -20 -20 -20 -20 -20 -20 -20 -20 -20 -20 -20 -20 -20 -20 -20 -20 -20 -20 -20 -20 -20 -20 -20 -20 -20 -20 -20 -20 -20 -20 -20 -20 -20 -20 -20 -20 -20 -20 -20 -20 -20 -20 -20
-20 -20 -20 -20 -20 -20 -20 -20 -20 -20 -20 -20 -20 -20 -20 -20 -20 -20 -20 -20 -20 -20 -20 -20 -20 -20 -20 -20 -20 -20 -20 -20 -20 -20 -20 -20 -20 -20 -20 -20 -20 -20 -20 -20 -20
-20 -20 -20 -20 -20 -20 -20 -20 -20 -20 -20 -20 -20 -20 -20 -20 -20 -20 -20 -20 -20 -20 -20 -20 -20 -20 -20 -20 -20 -20 -20 -20 -20 -20 -20 -20 -20 -20 -20 -20 -20 -20 -20 -20 -20
-20 -20 -20 -20 -20 -20 -20 -20 -20 -20 -20 -20 -20 -20 -20 -20 -20 -20 -20 -20 -20 -20 -20 -20 -20 -20 -20 -20 -20 -20 -20 -20 -20 -20 -20 -20 -20 -20 -20 -20 -20 -20 -20 -20 -20
-20 -20 -20 -20 -20 -20 -20 -20 -20 -20 -20 -20 -20 -20 -20 -20 -20 -20 -20 -20 -20 -20 -20 -20 -20 -20 -20 -20 -20 -20 -20 -20 -20 -20 -20 -20 -20 -20 -20 -20 -20 -20 -20 -20 -20
-20 -20 -20 -20 -20 -20 -20 -20 -20 -20 -20 -20 -20 -20 -20 -20 -20 -20 -20 -20 -20 -20 -20 -20 -20 -20 -20 -20 -20 -20 -20 -20 -20 -20 -20 -20 -20 -20 -20 -20 -20 -20 -20 -20 -20
-20 -20 -20 -20 -20 -20 -20 -20 -20 -20 -20 -19 -20 -20 -20 -20 -20 -20 -20 -20 -20 -20 -20 -20 -20 -20 -20 -20 -20 -20 -20 -20 -20 -20 -20 -20 -20 -20 -20 -20 -20 -20 -20 -20 -20
-20 -20 -20 -20 -20 -20 -20 -20 -20 -20 -20 -20 -20 -20 -20 -20 -20 -20 -20 -20 -20 -20 -20 -20 -20 -20 -20 -20 -20 -20 -20 -20 -20 -20 -20 -20 -20 -20 -20 -20 -20 -20 -20 -20 -20
-20 -20 -20 -20 -20 -20 -20 -20 -20 -20 -20 -20 -20 -20 -20 -20 -20 -20 -20 -20 -20 -20 -20 -20 -20 -20 -20 -20 -20 -20 -20 -20 -20 -20 -20 -20 -20 -20 -20 -20 -20 -20 -20 -20 -20
-20 -20 -20 -20 -20 -20 -20 -20 -20 -17 -20 -20 -20 -20 -20 -20 -20 -20 -20 -20 -20 -20 -20 -20 -20 -20 -20 -20 -20 -20 -20 -20 -20 -20 -20 -20 -20 -20 -20 -20 -20 -20 -20 -20 -20
-20 -20 -20 -20 -20 -20 -20 -20 -20 -20 -20 -20 -20 -20 -20 -20 -20 -20 -20 -20 -20 -20 -20 -20 -20 -20 -20 -20 -20 -20 -20 -20 -20 -20 -20 -20 -20 -20 -20 -20 -20 -20 -20 -20 -20
-20 -20 -20 -20 -20 -20 -20 -20 -20 -20 -20 -20 -20 -20 -20 -20 -20 -20 -20 -20 -20 -20 -20 -20 -20 -20 -20 -20 -20 -20 -20 -20 -20 -20 -20 -20 -20 -20 -20 -20 -20 -20 -20 -20 -20
-20 -20 -20 -20 -20 -20 -20 -20 -20 -20 -20 -20 -20 -20 -20 -20 -20 -20 -20 -20 -20 -20 -20 -20 -20 -20 -20 -20 -20 -20 -20 -20 -20 -20 -20 -20 -20 -20 -20 -20 -20 -20 -20 -20 -20
-20 -20 -20 -20 -20 -20 -20 -20 -20 -20 -20 -20 -20 -20 -20 -20 -20 -20 -20 -20 -20 -20 -20 -20 -20 -20 -20 -20 -20 -20 -20 -20 -20 -20 -20 -20 -20 -20 -20 -20 -20 -20 -20 -20 -20
-20 -20 -20 -19 -20 -20 -20 -20 -20 -20 -20 -20 -20 -20 -20 -20 -20 -20 -20 -20 -20 -20 -20 -20 -20 -20 -20 -20 -20 -20 -20 -20 -20 -20 -20 -20 -20 -20 -20 -20 -20 -20 -20 -20 -20
-20 -20 -20 -20 -20 -20 -20 -20 -20 -20 -20 -20 -20 -20 -20 -20 -20 -20 -20 -20 -20 -20 -20 -20 -20 -20 -20 -20 -20 -20 -20 -20 -20 -20 -20 -20 -20 -20 -20 -20 -20 -20 -20 -20 -20
-20 -20 -20 -20 -20 -20 -20 -20 -20 -20 -20 -20 -20 -20 -20 -20 -20 -20 -20 -20 -20 -20 -20 -20 -20 -20 -20 -20 -20 -20 -20 -20 -20 -20 -20 -20 -20 -20 -20 -20 -20 -20 -20 -20 -20
-20 -20 -20 -20 -20 -20 -20 -20 -20 -20 -20 -20 -20 -20 -20 -20 -20 -20 -20 -20 -20 -20 -20 -20 -20 -20 -20 -20 -20 -20 -20 -20 -20 -20 -20 -20 -20 -20 -20 -20 -20 -20 -20 -20 -20
-20 -20 -20 -20 -20 -20 -20 -20 -20 -20 -20 -20 -20 -20 -20 -20 -20 -20 -20 -20 -20 -20 -20 -20 -20 -20 -20 -20 -20 -20 -20 -20 -20 -20 -20 -20 -20 -20 -20 -20 -20 -20 -20 -20 -20
-20 -20 -20 -20 -20 -20 -20 -20 -20 -20 -20 -20 -20 -20 -20 -20 -20 -20 -20 -20 -20 -20 -20 -20 -20 -20 -20 -20 -20 -20 -20 -20 -20 -20 -20 -20 -20 -20 -20 -20 -20 -20 -20 -20 -20
-20 -20 -20 -20 -20 -20 -20 -20 -20 -20 -20 -20 -20 -20 -20 -20 -20 -20 -20 -20 -20 -20 -20 -20 -20 -20 -20 -20 -20 -20 -20 -20 -20 -20 -20 -20 -20 -20 -20 -20 -20 -20 -20 -20 -20
-20 -20 -20 -20 -20 -20 -20 -20 -20 -20 -20 -20 -20 -20 -20 -20 -20 -20 -20 -20 -20 -20 -20 -20 -20 -20 -20 -20 -20 -20 -20 -20 -20 -20 -20 -20 -20 -20 -20 -20 -20 -20 -20 -20 -20
-20 -20 -20 -20 -20 -20 -20 -20 -20 -20 -20 -20 -20 -20 -20 -20 -20 -20 -20 -20 -20 -20 -20 -20 -20 -20 -20 -20 -20 -20 -20 -20 -20 -20 -20 -20 -20 -20 -20 -20 -20 -20 -20 -20 -20
-20 -20 -20 -20 -20 -20 -20 -20 -20 -20 -20 -20 -20 -20 -20 -20 -20 -20 -20 -20 -20 -20 -20 -20 -20 -20 -20 -20 -20 -20 -20 -20 -20 -20 -20 -20 -20 -20 -20 -20 -20 -20 -20 -20 -20
-20 -20 -20 -20 -20 -20 -20 -20 -20 -20 -20 -20 -20 -20 -20 -20 -20 -20 -20 -20 -20 -20 -20 -20 -20 -20 -20 -20 -20 -20 -20 -20 -20 -20 -20 -20 -20 -20 -20 -20 -20 -20 -20 -20 -20
-9 -9 -20 -20 -20 -20 -20 -20 -20 -20 -20 -20 -20 -20 -20 -20 -20 -20 -20 -20 -20 -20 -20 -20 -20 -20 -20 -20 -20 -20 -20 -20 -20 -20 -20 -20 -20 -20 -20 -20 -20 -20 -20 -20 -20
-20 -11 2 -12 -1 -17 -20 -20 -20 -20 -20 -20 -20 -20 -20 -20 -20 -20 -20 -20 -20 -20 -20 -20 -20 -20 -20 -20 -20 -20 -20 -20 -20 -20 -20 -20 -20 -20 -20 -20 -20 -20 -20 -20 -20
Wind_Speed
20 20 20 20 19 19 19 19 19 20 19 20 20 18 18 18 18 4 8 11 9 19 16 15 10 12 14 7 5 4 2 5 7 9 6 12 7 7 5 13 4 5 8 12 18
21 20 21 21 21 21 20 19 19 20 21 20 18 18 16 15 5 10 10 8 6 18 12 16 15 17 7 6 6 5 4 11 9 9 9 12 10 10 5 15 6 7 13 20 19
22 22 21 21 21 22 22 21 20 19 21 21 20 17 15 12 6 4 3 4 6 10 7 10 6 12 8 5 6 4 4 6 9 12 15 14 10 8 9 13 10 12 20 23 18
23 23 23 23 23 22 22 22 23 22 19 19 19 17 14 4 7 2 1 8 14 13 5 9 8 9 7 9 7 5 3 6 9 13 16 18 13 8 14 2 11 18 22 20 19
22 23 23 24 24 24 24 23 23 24 21 18 17 12 6 3 12 3 5 3 9 13 14 12 12 8 10 7 6 4 4 5 4 14 15 16 14 8 13 5 14 21 22 21 19
22 23 23 24 24 26 25 23 23 23 22 19 14 6 4 9 2 2 4 6 5 13 14 11 10 6 6 5 7 5 5 8 9 14 16 16 10 11 10 12 18 22 21 19 19
23 23 23 24 25 27 27 26 26 24 22 16 8 6 4 17 5 3 4 3 6 13 18 9 4 6 6 7 6 12 9 10 11 14 9 15 9 13 13 16 18 20 18 18 18
24 25 25 26 26 27 28 27 27 23 15 3 10 4 9 2 2 6 6 4 5 4 11 5 1 4 0 7 6 5 6 7 8 13 9 16 13 12 17 19 19 20 18 18 18
23 25 26 27 28 27 28 30 20 5 3 10 5 4 9 3 4 0 7 5 7 3 1 4 3 1 4 10 7 3 7 10 10 11 9 14 6 13 18 18 18 19 19 17 16
23 23 24 25 27 29 31 22 4 2 4 5 5 4 6 3 1 1 3 11 5 8 4 3 3 6 5 10 13 12 7 8 8 13 9 13 8 7 15 18 19 19 18 18 18
24 25 25 26 27 27 17 3 2 3 4 7 2 5 3 3 2 4 4 5 6 4 9 4 9 15 17 15 12 14 15 16 9 10 11 14 12 7 14 17 18 18 19 19 20
24 24 26 28 28 25 5 2 6 1 11 13 20 16 14 4 5 7 7 8 7 9 7 6 15 14 14 13 9 14 15 14 7 12 12 11 13 10 16 21 20 20 20 20 20
25 25 25 29 31 3 5 4 4 0 5 10 6 6 6 15 12 13 14 8 11 10 13 13 8 10 12 12 12 12 17 13 14 12 4 6 15 15 13 18 18 20 20 20 21
24 25 23 31 2 7 4 3 6 3 4 6 5 5 7 8 8 15 17 9 5 15 12 10 8 17 13 18 15 17 14 16 16 12 13 12 11 11 15 18 21 22 21 22 21
23 24 21 16 9 6 3 7 6 4 6 2 3 3 5 7 1 9 15 7 12 9 7 9 11 14 21 19 15 11 12 18 17 17 9 9 8 12 8 17 23 25 25 25 23
25 24 22 2 4 9 11 9 4 3 10 3 2 5 4 7 2 5 10 7 8 12 4 14 3 14 15 17 18 10 12 6 4 9 10 17 15 13 10 15 22 22 25 25 24
28 26 18 6 5 2 6 3 4 8 1 4 5 3 7 5 6 8 16 16 14 17 15 12 14 7 10 18 15 14 16 8 9 8 9 12 13 17 11 19 22 19 24 27 25
31 30 4 6 5 7 4 4 11 5 12 1 1 6 5 2 5 13 14 19 18 18 13 16 16 17 14 17 14 20 20 11 17 10 10 4 12 14 17 23 13 15 14 20 24
27 4 4 2 8 3 4 12 9 9 5 5 7 10 7 3 5 11 12 20 21 21 15 15 18 4 11 9 18 15 14 16 8 2 8 7 6 11 13 15 16 21 15 20 23
9 5 4 3 9 5 6 13 8 7 4 4 8 5 4 3 3 8 9 7 14 21 21 10 8 14 17 13 9 16 15 11 8 17 15 8 5 7 6 13 16 15 18 20 22
3 6 4 3 4 4 7 8 10 11 8 8 11 11 8 4 3 2 2 2 7 18 20 15 12 6 8 19 21 8 9 4 7 9 15 15 13 8 13 13 12 15 17 19 19
4 5 4 2 4 2 5 5 3 6 13 13 5 14 13 8 8 6 8 5 1 10 13 14 13 14 14 7 8 24 20 18 11 12 5 10 14 5 14 13 10 14 13 10 15
7 5 2 4 5 4 4 6 6 9 8 9 16 12 10 14 8 10 12 11 13 5 8 10 9 11 14 16 9 9 17 20 18 14 17 15 11 4 6 9 14 17 14 7 11
4 5 2 4 2 4 4 6 6 6 12 14 7 7 8 8 10 4 7 5 6 12 5 8 6 11 16 19 15 16 12 16 19 16 15 16 17 10 10 12 15 16 14 11 10
3 4 2 4 2 8 4 5 10 6 4 3 9 18 13 14 16 19 15 16 15 9 5 8 10 16 20 21 23 23 22 21 19 22 20 17 18 17 15 17 17 15 9 10 11
4 3 4 6 9 9 6 5 8 4 4 8 7 3 12 14 15 12 17 15 14 1 12 7 5 8 15 25 23 27 26 23 23 24 20 22 16 12 14 10 12 15 12 13 15
1 3 3 5 5 5 4 4 3 9 7 12 11 10 10 11 8 9 14 14 10 6 9 7 6 5 8 17 20 22 25 24 20 21 21 20 14 11 12 15 16 14 14 16 16
Wind_Direction
355 352 351 348 344 342 339 335 331 328 326 324 327 330 329 327 321 158 257 217 186 160 139 153 172 158 182 205 195 176 198 172 169 177 139 151 148 143 130 145 175 161 149 143 151
352 350 347 344 341 338 335 332 329 326 324 322 322 325 326 328 304 268 262 262 215 156 145 170 175 167 189 200 176 218 220 190 182 166 152 166 164 145 155 159 149 109 124 137 152
349 346 344 341 338 334 330 327 324 323 321 319 319 321 319 319 291 248 347 206 165 207 190 187 178 180 210 177 176 166 246 164 185 169 155 162 167 153 161 187 181 164 152 152 162
347 345 341 338 335 331 325 323 320 319 319 314 313 315 313 267 287 183 15 192 186 188 186 168 174 181 203 192 172 210 191 168 163 165 159 161 162 173 175 186 175 164 157 158 170
345 343 340 336 332 328 322 318 315 315 315 309 305 307 289 227 249 298 55 51 161 179 193 185 182 179 196 190 154 220 180 183 177 171 170 151 169 167 191 107 149 154 159 169 178
343 341 337 334 331 325 319 316 314 313 309 304 290 276 220 257 236 118 97 132 161 186 180 190 199 210 172 160 202 157 120 111 144 151 155 164 162 162 187 143 143 160 169 175 183
341 339 335 332 329 323 317 315 315 311 305 295 250 208 218 247 144 259 265 212 175 193 171 202 168 218 154 141 131 140 119 108 138 153 148 156 161 209 166 160 158 171 176 182 190
339 337 334 331 329 322 315 315 312 307 296 265 168 207 247 203 217 251 219 191 181 202 190 158 165 117 250 125 105 136 154 170 168 173 151 191 214 194 170 169 175 180 185 190 190
337 336 333 329 328 322 317 314 314 333 109 139 165 233 260 307 239 342 190 158 142 216 120 123 185 134 157 153 140 186 185 199 167 195 155 203 221 194 178 183 184 187 189 195 194
335 333 331 328 327 323 321 311 264 59 164 221 259 253 240 163 266 182 170 155 133 144 160 142 134 186 162 189 200 183 202 197 181 181 190 201 224 156 190 190 193 196 197 199 200
333 333 332 329 326 324 328 316 251 165 216 244 258 270 273 264 266 138 147 166 116 139 172 175 197 199 193 196 215 191 207 192 171 170 189 221 253 219 196 207 204 203 203 205 210
332 331 332 329 325 322 289 37 73 59 302 252 252 257 263 306 259 207 168 183 170 176 133 173 216 203 199 203 198 202 211 203 150 162 199 210 243 241 203 216 209 205 209 211 214
332 331 334 332 323 330 322 132 22 258 259 286 225 231 213 194 222 224 176 165 180 168 185 209 206 194 200 200 197 212 208 189 194 179 160 193 245 239 218 219 217 219 218 216 217
330 328 336 336 300 336 300 121 333 241 288 265 238 239 168 169 215 209 191 162 173 195 169 213 203 192 197 212 203 208 214 202 184 176 227 199 261 228 221 213 219 221 218 219 217
326 322 330 333 293 284 23 329 313 198 300 126 178 120 156 193 126 188 184 193 188 166 182 190 189 192 200 207 201 224 181 195 194 197 207 214 244 258 201 219 220 220 221 220 218
321 318 326 336 245 256 301 307 222 201 244 268 191 188 175 219 209 118 168 188 177 178 206 211 197 196 200 203 198 146 125 94 144 201 221 219 216 249 207 219 227 222 221 222 217
319 316 307 258 227 249 324 251 197 226 5 207 191 181 329 196 210 184 177 181 175 185 197 202 217 214 195 199 198 197 171 168 192 198 226 228 217 245 245 232 235 231 217 217 212
319 314 282 215 234 256 291 189 220 204 219 359 202 288 278 217 220 189 182 190 194 185 186 203 216 208 197 208 188 198 199 202 206 205 213 179 220 237 237 250 248 253 237 219 216
318 327 275 239 217 197 199 216 212 199 202 230 266 270 263 222 242 196 202 208 193 192 195 199 223 202 205 191 179 177 209 215 221 21 225 190 241 274 249 249 245 240 224 215 213
319 320 267 334 157 171 215 233 221 214 204 202 221 207 226 201 242 203 191 186 199 201 194 181 207 207 198 195 188 206 175 189 213 217 229 203 235 233 221 244 241 239 224 227 217
309 309 28 130 187 215 223 233 236 240 232 223 230 236 237 219 229 255 224 242 203 193 202 188 216 156 176 207 199 171 183 210 235 233 230 234 232 211 232 244 246 242 231 232 218
342 292 83 194 225 203 240 207 263 244 224 236 244 238 228 216 244 255 244 255 191 144 185 201 207 219 215 205 240 222 214 208 214 191 225 254 224 185 232 240 243 251 250 249 219
310 281 308 224 245 224 278 275 264 253 223 200 221 230 224 244 247 237 236 248 243 251 181 165 211 213 230 238 201 225 226 223 229 245 213 229 221 197 230 242 248 254 263 244 212
303 305 242 217 300 287 335 275 263 289 253 242 233 212 218 227 231 241 214 256 250 228 187 177 177 217 224 231 233 227 226 217 221 225 222 228 237 210 237 244 257 244 248 240 210
226 260 353 311 188 324 289 292 288 282 290 252 220 235 222 233 235 235 242 266 282 268 247 207 213 215 227 228 215 222 228 218 217 235 231 226 219 221 224 235 236 240 255 218 201
287 318 339 287 292 288 259 238 256 302 292 277 242 241 247 234 238 246 226 231 240 246 212 195 224 218 243 230 224 221 220 225 222 226 230 237 221 218 230 237 243 246 230 224 210
277 260 275 271 288 280 260 298 296 347 270 255 314 326 287 274 285 276 279 272 275 262 198 193 197 177 242 231 218 231 223 220 226 223 210 218 222 213 227 228 229 229 228 228 218